Time,TemperatureF,DewpointF,PressureIn,WindDirection,WindDirectionDegrees,WindSpeedMPH,WindSpeedGustMPH,Humidity,HourlyPrecipIn,Conditions,Clouds,dailyrainin,SoftwareType,DateUTC
2013-02-01 00:01:00,13.0,4.3,30.29,NW,315,2.9,2.9,68,0.00,,,0.00,WUHU216HW,2013-02-01 06:01:00,
2013-02-01 00:06:00,12.8,4.1,30.30,NW,315,3.8,3.8,68,0.00,,,0.00,WUHU216HW,2013-02-01 06:06:00,
2013-02-01 00:11:00,12.8,4.5,30.30,NW,315,1.6,3.8,69,0.00,,,0.00,WUHU216HW,2013-02-01 06:11:00,
2013-02-01 00:16:00,12.6,4.3,30.30,NW,315,1.8,1.8,69,0.00,,,0.00,WUHU216HW,2013-02-01 06:16:00,
2013-02-01 00:21:00,12.6,4.3,30.29,NW,315,1.1,2.2,69,0.00,,,0.00,WUHU216HW,2013-02-01 06:21:00,
2013-02-01 00:26:00,12.6,4.7,30.29,NW,315,1.9,2.5,70,0.00,,,0.00,WUHU216HW,2013-02-01 06:26:00,
2013-02-01 00:31:00,12.6,4.7,30.29,NW,315,0.6,2.5,70,0.00,,,0.00,WUHU216HW,2013-02-01 06:31:00,
2013-02-01 00:36:00,12.4,4.8,30.29,NW,315,2.0,2.0,71,0.00,,,0.00,WUHU216HW,2013-02-01 06:36:00,
2013-02-01 00:41:00,12.4,4.8,30.29,NW,315,2.3,3.6,71,0.00,,,0.00,WUHU216HW,2013-02-01 06:41:00,
2013-02-01 00:46:00,12.2,4.6,30.29,NW,315,1.8,3.8,71,0.00,,,0.00,WUHU216HW,2013-02-01 06:46:00,
2013-02-01 00:51:00,12.2,4.9,30.30,NW,315,1.2,3.8,72,0.00,,,0.00,WUHU216HW,2013-02-01 06:51:00,
2013-02-01 00:56:00,12.1,4.7,30.30,NW,315,0.9,3.6,72,0.00,,,0.00,WUHU216HW,2013-02-01 06:56:00,
2013-02-01 01:01:00,11.9,4.5,30.30,NW,315,0.4,2.5,72,0.00,,,0.00,WUHU216HW,2013-02-01 07:01:00,
2013-02-01 01:06:00,11.9,4.5,30.30,NW,315,1.1,2.5,72,0.00,,,0.00,WUHU216HW,2013-02-01 07:06:00,
2013-02-01 01:11:00,11.9,4.5,30.29,NW,315,2.2,2.5,72,0.00,,,0.00,WUHU216HW,2013-02-01 07:11:00,
2013-02-01 01:16:00,11.7,5.0,30.30,NW,315,0.6,2.5,74,0.00,,,0.00,WUHU216HW,2013-02-01 07:16:00,
2013-02-01 01:21:00,11.7,5.0,30.30,NW,315,0.4,1.3,74,0.00,,,0.00,WUHU216HW,2013-02-01 07:21:00,
2013-02-01 01:26:00,11.7,4.7,30.30,NW,315,0.9,5.4,73,0.00,,,0.00,WUHU216HW,2013-02-01 07:26:00,
2013-02-01 01:31:00,11.5,4.5,30.29,NW,315,0.3,5.4,73,0.00,,,0.00,WUHU216HW,2013-02-01 07:31:00,
2013-02-01 01:36:00,11.5,4.8,30.30,NW,315,1.1,2.5,74,0.00,,,0.00,WUHU216HW,2013-02-01 07:36:00,
2013-02-01 01:41:00,11.5,4.8,30.29,NW,315,1.2,2.5,74,0.00,,,0.00,WUHU216HW,2013-02-01 07:41:00,
2013-02-01 01:46:00,11.3,4.3,30.29,NW,315,2.0,2.5,73,0.00,,,0.00,WUHU216HW,2013-02-01 07:46:00,
2013-02-01 01:51:00,11.2,4.2,30.28,NW,315,0.8,2.2,73,0.00,,,0.00,WUHU216HW,2013-02-01 07:51:00,
2013-02-01 01:56:00,11.2,4.2,30.29,NW,315,1.1,1.8,73,0.00,,,0.00,WUHU216HW,2013-02-01 07:56:00,
2013-02-01 02:01:00,11.2,4.4,30.29,NW,315,0.9,1.6,74,0.00,,,0.00,WUHU216HW,2013-02-01 08:01:00,
2013-02-01 02:06:00,11.2,4.4,30.29,NW,315,2.3,3.6,74,0.00,,,0.00,WUHU216HW,2013-02-01 08:06:00,
2013-02-01 02:11:00,11.0,4.2,30.29,NW,315,0.2,3.6,74,0.00,,,0.00,WUHU216HW,2013-02-01 08:11:00,
2013-02-01 02:16:00,11.0,4.0,30.30,NW,315,0.4,1.8,73,0.00,,,0.00,WUHU216HW,2013-02-01 08:16:00,
2013-02-01 02:21:00,10.8,4.1,30.30,NW,315,0.3,1.8,74,0.00,,,0.00,WUHU216HW,2013-02-01 08:21:00,
2013-02-01 02:26:00,10.8,4.1,30.30,NW,315,0.3,1.8,74,0.00,,,0.00,WUHU216HW,2013-02-01 08:26:00,
2013-02-01 02:31:00,10.6,3.6,30.30,NW,315,0.7,0.9,73,0.00,,,0.00,WUHU216HW,2013-02-01 08:31:00,
2013-02-01 02:36:00,10.6,3.6,30.30,NW,315,1.1,1.1,73,0.00,,,0.00,WUHU216HW,2013-02-01 08:36:00,
2013-02-01 02:41:00,10.6,3.9,30.30,NW,315,4.0,4.0,74,0.00,,,0.00,WUHU216HW,2013-02-01 08:41:00,
2013-02-01 02:46:00,10.6,3.6,30.30,NW,315,4.3,4.3,73,0.00,,,0.00,WUHU216HW,2013-02-01 08:46:00,
2013-02-01 02:51:00,10.6,3.2,30.30,NW,315,1.4,4.3,72,0.00,,,0.00,WUHU216HW,2013-02-01 08:51:00,
2013-02-01 02:56:00,10.6,3.6,30.30,NW,315,0.4,2.0,73,0.00,,,0.00,WUHU216HW,2013-02-01 08:56:00,
2013-02-01 03:01:00,10.6,3.9,30.29,NW,315,0.1,1.8,74,0.00,,,0.00,WUHU216HW,2013-02-01 09:01:00,
2013-02-01 03:06:00,10.4,3.7,30.29,NW,315,0.2,0.9,74,0.00,,,0.00,WUHU216HW,2013-02-01 09:06:00,
2013-02-01 03:11:00,10.3,3.3,30.30,NW,315,0.4,0.4,73,0.00,,,0.00,WUHU216HW,2013-02-01 09:11:00,
2013-02-01 03:16:00,10.3,3.3,30.29,NW,315,3.0,3.4,73,0.00,,,0.00,WUHU216HW,2013-02-01 09:16:00,
2013-02-01 03:21:00,10.3,3.5,30.29,NW,315,0.6,3.4,74,0.00,,,0.00,WUHU216HW,2013-02-01 09:21:00,
2013-02-01 03:26:00,10.3,3.5,30.29,NW,315,0.9,2.5,74,0.00,,,0.00,WUHU216HW,2013-02-01 09:26:00,
2013-02-01 03:31:00,10.1,3.3,30.28,NW,315,1.1,2.5,74,0.00,,,0.00,WUHU216HW,2013-02-01 09:31:00,
2013-02-01 03:36:00,9.9,3.2,30.28,NW,315,1.0,1.3,74,0.00,,,0.00,WUHU216HW,2013-02-01 09:36:00,
2013-02-01 03:41:00,9.9,2.9,30.28,NW,315,1.0,1.3,73,0.00,,,0.00,WUHU216HW,2013-02-01 09:41:00,
2013-02-01 03:46:00,9.7,2.7,30.28,NW,315,0.9,1.1,73,0.00,,,0.00,WUHU216HW,2013-02-01 09:46:00,
2013-02-01 03:51:00,9.7,2.7,30.28,NW,315,0.2,1.1,73,0.00,,,0.00,WUHU216HW,2013-02-01 09:51:00,
2013-02-01 03:56:00,9.7,2.7,30.27,NW,315,1.8,1.8,73,0.00,,,0.00,WUHU216HW,2013-02-01 09:56:00,
2013-02-01 04:01:00,9.7,2.7,30.27,NW,315,3.1,3.1,73,0.00,,,0.00,WUHU216HW,2013-02-01 10:01:00,
2013-02-01 04:06:00,9.7,2.7,30.27,NW,315,1.4,3.6,73,0.00,,,0.00,WUHU216HW,2013-02-01 10:06:00,
2013-02-01 04:11:00,9.7,3.1,30.27,NW,315,2.2,3.6,74,0.00,,,0.00,WUHU216HW,2013-02-01 10:11:00,
2013-02-01 04:16:00,9.7,3.1,30.27,NW,315,1.8,2.2,74,0.00,,,0.00,WUHU216HW,2013-02-01 10:16:00,
2013-02-01 04:21:00,9.7,2.7,30.27,NW,315,3.1,3.1,73,0.00,,,0.00,WUHU216HW,2013-02-01 10:21:00,
2013-02-01 04:26:00,9.7,2.7,30.27,NW,315,3.4,3.4,73,0.00,,,0.00,WUHU216HW,2013-02-01 10:26:00,
2013-02-01 04:31:00,9.7,2.7,30.27,NW,315,0.9,3.4,73,0.00,,,0.00,WUHU216HW,2013-02-01 10:31:00,
2013-02-01 04:36:00,9.7,2.4,30.27,NW,315,1.7,2.5,72,0.00,,,0.00,WUHU216HW,2013-02-01 10:36:00,
2013-02-01 04:41:00,9.7,2.4,30.27,NW,315,2.8,3.1,72,0.00,,,0.00,WUHU216HW,2013-02-01 10:41:00,
2013-02-01 04:46:00,9.7,2.4,30.26,NW,315,1.5,3.1,72,0.00,,,0.00,WUHU216HW,2013-02-01 10:46:00,
2013-02-01 04:51:00,9.7,2.4,30.26,NW,315,1.5,3.4,72,0.00,,,0.00,WUHU216HW,2013-02-01 10:51:00,
2013-02-01 04:56:00,9.7,2.4,30.26,NW,315,0.4,3.4,72,0.00,,,0.00,WUHU216HW,2013-02-01 10:56:00,
2013-02-01 05:01:00,9.7,2.4,30.27,NW,315,1.1,1.1,72,0.00,,,0.00,WUHU216HW,2013-02-01 11:01:00,
2013-02-01 05:06:00,9.7,2.4,30.27,NW,315,0.3,1.6,72,0.00,,,0.00,WUHU216HW,2013-02-01 11:06:00,
2013-02-01 05:11:00,9.7,2.4,30.27,NW,315,0.9,2.0,72,0.00,,,0.00,WUHU216HW,2013-02-01 11:11:00,
2013-02-01 05:16:00,9.7,2.4,30.27,NW,315,1.3,2.0,72,0.00,,,0.00,WUHU216HW,2013-02-01 11:16:00,
2013-02-01 05:21:00,9.7,2.4,30.27,NW,315,0.7,1.8,72,0.00,,,0.00,WUHU216HW,2013-02-01 11:21:00,
2013-02-01 05:26:00,9.7,2.4,30.27,NW,315,1.8,2.5,72,0.00,,,0.00,WUHU216HW,2013-02-01 11:26:00,
2013-02-01 05:31:00,9.7,2.4,30.27,NW,315,2.4,3.1,72,0.00,,,0.00,WUHU216HW,2013-02-01 11:31:00,
2013-02-01 05:36:00,9.7,2.4,30.27,NW,315,0.1,3.1,72,0.00,,,0.00,WUHU216HW,2013-02-01 11:36:00,
2013-02-01 05:41:00,9.5,2.3,30.27,NW,315,0.3,0.7,72,0.00,,,0.00,WUHU216HW,2013-02-01 11:41:00,
2013-02-01 05:46:00,9.7,2.4,30.27,NW,315,0.0,0.7,72,0.00,,,0.00,WUHU216HW,2013-02-01 11:46:00,
2013-02-01 05:51:00,9.7,2.4,30.27,NW,315,0.0,0.4,72,0.00,,,0.00,WUHU216HW,2013-02-01 11:51:00,
2013-02-01 05:56:00,9.7,2.4,30.28,NW,315,0.2,0.2,72,0.00,,,0.00,WUHU216HW,2013-02-01 11:56:00,
2013-02-01 06:01:00,9.7,2.7,30.30,NW,315,0.2,0.4,73,0.00,,,0.00,WUHU216HW,2013-02-01 12:01:00,
2013-02-01 06:06:00,9.7,2.7,30.30,NW,315,0.0,0.4,73,0.00,,,0.00,WUHU216HW,2013-02-01 12:06:00,
2013-02-01 06:11:00,9.7,2.7,30.30,NW,315,0.2,1.1,73,0.00,,,0.00,WUHU216HW,2013-02-01 12:11:00,
2013-02-01 06:16:00,9.7,2.7,30.30,NW,315,0.7,1.1,73,0.00,,,0.00,WUHU216HW,2013-02-01 12:16:00,
2013-02-01 06:21:00,9.7,2.7,30.30,NW,315,1.1,1.8,73,0.00,,,0.00,WUHU216HW,2013-02-01 12:21:00,
2013-02-01 06:26:00,9.5,2.6,30.30,NW,315,2.2,2.2,73,0.00,,,0.00,WUHU216HW,2013-02-01 12:26:00,
2013-02-01 06:31:00,9.5,2.9,30.30,NW,315,0.4,2.2,74,0.00,,,0.00,WUHU216HW,2013-02-01 12:31:00,
2013-02-01 06:36:00,9.4,2.2,30.30,NW,315,0.0,1.3,72,0.00,,,0.00,WUHU216HW,2013-02-01 12:36:00,
2013-02-01 06:41:00,9.4,2.2,30.30,NW,315,0.1,0.2,72,0.00,,,0.00,WUHU216HW,2013-02-01 12:41:00,
2013-02-01 06:46:00,9.2,2.3,30.30,NW,315,0.0,0.2,73,0.00,,,0.00,WUHU216HW,2013-02-01 12:46:00,
2013-02-01 06:51:00,9.0,2.1,30.30,NW,315,0.0,0.0,73,0.00,,,0.00,WUHU216HW,2013-02-01 12:51:00,
2013-02-01 06:56:00,9.0,2.1,30.30,NW,315,0.0,0.0,73,0.00,,,0.00,WUHU216HW,2013-02-01 12:56:00,
2013-02-01 07:01:00,9.0,2.1,30.30,NW,315,0.0,0.0,73,0.00,,,0.00,WUHU216HW,2013-02-01 13:01:00,
2013-02-01 07:06:00,9.0,2.1,30.30,NW,315,0.0,0.0,73,0.00,,,0.00,WUHU216HW,2013-02-01 13:06:00,
2013-02-01 07:11:00,9.0,2.1,30.30,NW,315,0.0,0.0,73,0.00,,,0.00,WUHU216HW,2013-02-01 13:11:00,
2013-02-01 07:16:00,9.0,2.3,30.30,NW,315,0.0,0.0,74,0.00,,,0.00,WUHU216HW,2013-02-01 13:16:00,
2013-02-01 07:21:00,9.2,2.5,30.30,NW,315,0.0,0.0,74,0.00,,,0.00,WUHU216HW,2013-02-01 13:21:00,
2013-02-01 07:26:00,9.4,2.7,30.30,NW,315,0.0,0.0,74,0.00,,,0.00,WUHU216HW,2013-02-01 13:26:00,
2013-02-01 07:31:00,9.7,3.1,30.30,NW,315,0.0,0.2,74,0.00,,,0.00,WUHU216HW,2013-02-01 13:31:00,
2013-02-01 07:36:00,9.7,3.1,30.31,NW,315,0.0,0.2,74,0.00,,,0.00,WUHU216HW,2013-02-01 13:36:00,
2013-02-01 07:41:00,9.9,3.2,30.31,NW,315,0.0,0.2,74,0.00,,,0.00,WUHU216HW,2013-02-01 13:41:00,
2013-02-01 07:46:00,10.1,3.3,30.31,NW,315,0.1,0.4,74,0.00,,,0.00,WUHU216HW,2013-02-01 13:46:00,
2013-02-01 07:51:00,10.4,3.7,30.31,NW,315,0.3,0.4,74,0.00,,,0.00,WUHU216HW,2013-02-01 13:51:00,
2013-02-01 07:56:00,10.4,3.7,30.32,NW,315,0.2,0.4,74,0.00,,,0.00,WUHU216HW,2013-02-01 13:56:00,
2013-02-01 08:01:00,10.4,3.7,30.32,NW,315,0.4,0.4,74,0.00,,,0.00,WUHU216HW,2013-02-01 14:01:00,
2013-02-01 08:06:00,10.8,4.1,30.32,NW,315,0.4,0.4,74,0.00,,,0.00,WUHU216HW,2013-02-01 14:06:00,
2013-02-01 08:11:00,11.0,4.2,30.32,NW,315,0.4,0.4,74,0.00,,,0.00,WUHU216HW,2013-02-01 14:11:00,
2013-02-01 08:16:00,11.2,4.2,30.32,NW,315,0.7,1.3,73,0.00,,,0.00,WUHU216HW,2013-02-01 14:16:00,
2013-02-01 08:21:00,11.3,4.3,30.32,NW,315,0.2,1.3,73,0.00,,,0.00,WUHU216HW,2013-02-01 14:21:00,
2013-02-01 08:26:00,11.7,4.7,30.32,NW,315,0.2,0.9,73,0.00,,,0.00,WUHU216HW,2013-02-01 14:26:00,
2013-02-01 08:31:00,12.1,5.1,30.32,NW,315,0.2,0.4,73,0.00,,,0.00,WUHU216HW,2013-02-01 14:31:00,
2013-02-01 08:36:00,12.2,4.9,30.32,NW,315,0.7,0.7,72,0.00,,,0.00,WUHU216HW,2013-02-01 14:36:00,
2013-02-01 08:41:00,12.8,5.4,30.32,NW,315,0.0,0.7,72,0.00,,,0.00,WUHU216HW,2013-02-01 14:41:00,
2013-02-01 08:46:00,14.0,6.7,30.32,NW,315,0.4,2.5,72,0.00,,,0.00,WUHU216HW,2013-02-01 14:46:00,
2013-02-01 08:51:00,15.8,6.4,30.32,NW,315,1.1,2.5,66,0.00,,,0.00,WUHU216HW,2013-02-01 14:51:00,
2013-02-01 08:56:00,17.6,7.8,30.32,NW,315,1.4,1.8,65,0.00,,,0.00,WUHU216HW,2013-02-01 14:56:00,
2013-02-01 09:01:00,20.2,9.8,30.32,NW,315,0.8,2.5,64,0.00,,,0.00,WUHU216HW,2013-02-01 15:01:00,
2013-02-01 09:06:00,21.2,8.7,30.32,NW,315,1.1,2.5,58,0.00,,,0.00,WUHU216HW,2013-02-01 15:06:00,
2013-02-01 09:11:00,22.7,11.9,30.32,NW,315,0.9,1.8,63,0.00,,,0.00,WUHU216HW,2013-02-01 15:11:00,
2013-02-01 09:16:00,22.0,5.1,30.32,NW,315,2.2,2.2,48,0.00,,,0.00,WUHU216HW,2013-02-01 15:16:00,
2013-02-01 09:21:00,20.2,5.2,30.32,NW,315,1.1,2.2,52,0.00,,,0.00,WUHU216HW,2013-02-01 15:21:00,
2013-02-01 09:26:00,19.1,5.4,30.32,NW,315,0.9,1.8,55,0.00,,,0.00,WUHU216HW,2013-02-01 15:26:00,
2013-02-01 09:31:00,19.8,7.3,30.32,NW,315,0.4,1.1,58,0.00,,,0.00,WUHU216HW,2013-02-01 15:31:00,
2013-02-01 09:36:00,20.9,8.4,30.31,NW,315,2.0,2.0,58,0.00,,,0.00,WUHU216HW,2013-02-01 15:36:00,
2013-02-01 09:41:00,21.4,8.0,30.32,NW,315,1.2,2.2,56,0.00,,,0.00,WUHU216HW,2013-02-01 15:41:00,
2013-02-01 09:46:00,21.6,7.0,30.32,NW,315,0.4,2.2,53,0.00,,,0.00,WUHU216HW,2013-02-01 15:46:00,
2013-02-01 09:51:00,22.0,7.7,30.32,NW,315,1.1,2.2,54,0.00,,,0.00,WUHU216HW,2013-02-01 15:51:00,
2013-02-01 09:56:00,22.9,9.0,30.32,NW,315,0.7,2.2,55,0.00,,,0.00,WUHU216HW,2013-02-01 15:56:00,
2013-02-01 10:01:00,24.7,12.0,30.32,NW,315,0.4,1.1,58,0.00,,,0.00,WUHU216HW,2013-02-01 16:01:00,
2013-02-01 10:06:00,25.6,12.0,30.32,NW,315,1.5,1.8,56,0.00,,,0.00,WUHU216HW,2013-02-01 16:06:00,
2013-02-01 10:11:00,25.7,10.4,30.32,NW,315,0.3,1.8,52,0.00,,,0.00,WUHU216HW,2013-02-01 16:11:00,
2013-02-01 10:16:00,25.2,8.2,30.32,NW,315,2.5,2.5,48,0.00,,,0.00,WUHU216HW,2013-02-01 16:16:00,
2013-02-01 10:21:00,25.6,8.5,30.32,NW,315,1.6,2.5,48,0.00,,,0.00,WUHU216HW,2013-02-01 16:21:00,
2013-02-01 10:26:00,25.6,8.5,30.32,NW,315,1.3,2.5,48,0.00,,,0.00,WUHU216HW,2013-02-01 16:26:00,
2013-02-01 10:31:00,25.0,9.0,30.31,NW,315,2.5,2.5,50,0.00,,,0.00,WUHU216HW,2013-02-01 16:31:00,
2013-02-01 10:36:00,25.2,8.2,30.31,NW,315,1.0,2.5,48,0.00,,,0.00,WUHU216HW,2013-02-01 16:36:00,
2013-02-01 10:41:00,25.6,10.3,30.31,NW,315,0.6,2.0,52,0.00,,,0.00,WUHU216HW,2013-02-01 16:41:00,
2013-02-01 10:46:00,25.0,8.5,30.31,NW,315,0.8,3.1,49,0.00,,,0.00,WUHU216HW,2013-02-01 16:46:00,
2013-02-01 10:51:00,24.5,9.4,30.31,NW,315,2.0,3.1,52,0.00,,,0.00,WUHU216HW,2013-02-01 16:51:00,
2013-02-01 10:56:00,24.5,8.5,30.30,NW,315,1.1,2.2,50,0.00,,,0.00,WUHU216HW,2013-02-01 16:56:00,
2013-02-01 11:01:00,24.8,9.6,30.30,NW,315,1.6,3.4,52,0.00,,,0.00,WUHU216HW,2013-02-01 17:01:00,
2013-02-01 11:06:00,25.6,10.7,30.29,NW,315,0.9,3.4,53,0.00,,,0.00,WUHU216HW,2013-02-01 17:06:00,
2013-02-01 11:11:00,25.9,9.8,30.29,NW,315,2.5,3.6,50,0.00,,,0.00,WUHU216HW,2013-02-01 17:11:00,
2013-02-01 11:16:00,26.1,9.0,30.29,NW,315,1.2,3.6,48,0.00,,,0.00,WUHU216HW,2013-02-01 17:16:00,
2013-02-01 11:21:00,26.6,10.4,30.28,NW,315,0.7,1.6,50,0.00,,,0.00,WUHU216HW,2013-02-01 17:21:00,
2013-02-01 11:26:00,27.0,10.4,30.28,NW,315,0.0,2.5,49,0.00,,,0.00,WUHU216HW,2013-02-01 17:26:00,
2013-02-01 11:31:00,27.7,10.5,30.28,NW,315,0.6,2.5,48,0.00,,,0.00,WUHU216HW,2013-02-01 17:31:00,
2013-02-01 11:36:00,27.0,9.4,30.27,NW,315,1.6,3.4,47,0.00,,,0.00,WUHU216HW,2013-02-01 17:36:00,
2013-02-01 11:41:00,26.6,10.0,30.27,NW,315,1.6,3.4,49,0.00,,,0.00,WUHU216HW,2013-02-01 17:41:00,
2013-02-01 11:46:00,26.8,10.6,30.27,NW,315,2.0,2.7,50,0.00,,,0.00,WUHU216HW,2013-02-01 17:46:00,
2013-02-01 11:51:00,27.0,11.6,30.27,NW,315,1.6,2.7,52,0.00,,,0.00,WUHU216HW,2013-02-01 17:51:00,
2013-02-01 11:56:00,27.7,11.5,30.27,NW,315,0.7,2.5,50,0.00,,,0.00,WUHU216HW,2013-02-01 17:56:00,
2013-02-01 12:01:00,28.3,12.5,30.26,NW,315,1.8,2.5,51,0.00,,,0.00,WUHU216HW,2013-02-01 18:01:00,
2013-02-01 12:06:00,28.1,11.9,30.26,NW,315,2.7,2.9,50,0.00,,,0.00,WUHU216HW,2013-02-01 18:06:00,
2013-02-01 12:11:00,27.7,11.0,30.26,NW,315,1.5,3.4,49,0.00,,,0.00,WUHU216HW,2013-02-01 18:11:00,
2013-02-01 12:16:00,28.3,12.1,30.25,NW,315,2.8,3.4,50,0.00,,,0.00,WUHU216HW,2013-02-01 18:16:00,
2013-02-01 12:21:00,28.4,12.7,30.25,NW,315,2.5,3.4,51,0.00,,,0.00,WUHU216HW,2013-02-01 18:21:00,
2013-02-01 12:26:00,29.2,14.6,30.24,NW,315,3.4,3.4,54,0.00,,,0.00,WUHU216HW,2013-02-01 18:26:00,
2013-02-01 12:31:00,29.5,11.7,30.25,NW,315,3.1,3.4,47,0.00,,,0.00,WUHU216HW,2013-02-01 18:31:00,
2013-02-01 12:36:00,29.5,13.2,30.24,NW,315,1.3,3.4,50,0.00,,,0.00,WUHU216HW,2013-02-01 18:36:00,
2013-02-01 12:41:00,29.9,13.1,30.24,SE,132,1.3,3.4,49,0.00,,,0.00,WUHU216HW,2013-02-01 18:41:00,
2013-02-01 12:46:00,30.2,13.9,30.24,South,180,1.8,3.4,50,0.00,,,0.00,WUHU216HW,2013-02-01 18:46:00,
2013-02-01 12:51:00,31.0,14.5,30.24,ESE,113,1.6,2.7,50,0.00,,,0.00,WUHU216HW,2013-02-01 18:51:00,
2013-02-01 12:56:00,31.3,14.3,30.24,SSE,150,1.5,2.5,49,0.00,,,0.00,WUHU216HW,2013-02-01 18:56:00,
2013-02-01 13:01:00,31.5,15.0,30.23,SE,135,2.2,4.9,50,0.00,,,0.00,WUHU216HW,2013-02-01 19:01:00,
2013-02-01 13:07:00,31.9,14.3,30.22,SSE,158,1.4,4.9,48,0.00,,,0.00,WUHU216HW,2013-02-01 19:07:00,
2013-02-01 13:12:00,31.9,14.3,30.22,ESE,120,1.0,2.9,48,0.00,,,0.00,WUHU216HW,2013-02-01 19:12:00,
2013-02-01 13:17:00,31.9,13.8,30.22,SSE,158,1.3,2.9,47,0.00,,,0.00,WUHU216HW,2013-02-01 19:17:00,
2013-02-01 13:22:00,32.0,14.5,30.22,SSE,158,3.4,3.4,48,0.00,,,0.00,WUHU216HW,2013-02-01 19:22:00,
2013-02-01 13:27:00,32.0,12.4,30.22,ESE,117,1.6,3.4,44,0.00,,,0.00,WUHU216HW,2013-02-01 19:27:00,
2013-02-01 13:32:00,32.0,13.5,30.22,SW,225,1.0,2.7,46,0.00,,,0.00,WUHU216HW,2013-02-01 19:32:00,
2013-02-01 13:37:00,32.2,13.6,30.21,ESE,113,2.5,4.0,46,0.00,,,0.00,WUHU216HW,2013-02-01 19:37:00,
2013-02-01 13:42:00,32.4,14.3,30.21,SSE,148,1.8,4.0,47,0.00,,,0.00,WUHU216HW,2013-02-01 19:42:00,
2013-02-01 13:47:00,32.8,14.6,30.21,SE,145,0.8,2.5,47,0.00,,,0.00,WUHU216HW,2013-02-01 19:47:00,
2013-02-01 13:52:00,33.1,14.4,30.20,SE,135,1.8,2.5,46,0.00,,,0.00,WUHU216HW,2013-02-01 19:52:00,
2013-02-01 13:57:00,33.5,14.8,30.20,SSE,158,2.5,2.5,46,0.00,,,0.00,WUHU216HW,2013-02-01 19:57:00,
2013-02-01 14:02:00,33.7,13.4,30.19,SE,145,2.8,3.6,43,0.00,,,0.00,WUHU216HW,2013-02-01 20:02:00,
2013-02-01 14:07:00,33.5,14.8,30.19,East,90,2.0,3.6,46,0.00,,,0.00,WUHU216HW,2013-02-01 20:07:00,
2013-02-01 14:12:00,33.5,14.2,30.18,ENE,68,2.5,2.5,45,0.00,,,0.00,WUHU216HW,2013-02-01 20:12:00,
2013-02-01 14:17:00,32.8,13.6,30.18,SE,135,2.9,3.1,45,0.00,,,0.00,WUHU216HW,2013-02-01 20:17:00,
2013-02-01 14:22:00,32.6,13.4,30.18,SSE,158,3.6,3.6,45,0.00,,,0.00,WUHU216HW,2013-02-01 20:22:00,
2013-02-01 14:27:00,32.6,14.5,30.17,SE,139,0.3,3.6,47,0.00,,,0.00,WUHU216HW,2013-02-01 20:27:00,
2013-02-01 14:32:00,32.8,14.6,30.17,SE,135,0.7,2.9,47,0.00,,,0.00,WUHU216HW,2013-02-01 20:32:00,
2013-02-01 14:37:00,32.9,13.8,30.17,SE,137,1.0,2.9,45,0.00,,,0.00,WUHU216HW,2013-02-01 20:37:00,
2013-02-01 14:42:00,33.1,14.4,30.17,ESE,120,1.5,2.5,46,0.00,,,0.00,WUHU216HW,2013-02-01 20:42:00,
2013-02-01 14:47:00,33.8,15.6,30.17,SE,135,2.0,2.0,47,0.00,,,0.00,WUHU216HW,2013-02-01 20:47:00,
2013-02-01 14:52:00,34.6,13.8,30.17,SSE,158,4.7,4.7,42,0.00,,,0.00,WUHU216HW,2013-02-01 20:52:00,
2013-02-01 14:57:00,34.9,14.0,30.17,SE,136,2.4,4.7,42,0.00,,,0.00,WUHU216HW,2013-02-01 20:57:00,
2013-02-01 15:02:00,35.3,13.9,30.16,NNE,31,2.7,4.9,41,0.00,,,0.00,WUHU216HW,2013-02-01 21:02:00,
2013-02-01 15:07:00,34.6,13.8,30.16,SSE,158,1.9,4.9,42,0.00,,,0.00,WUHU216HW,2013-02-01 21:07:00,
2013-02-01 15:12:00,33.8,14.0,30.16,SSE,158,1.8,5.4,44,0.00,,,0.00,WUHU216HW,2013-02-01 21:12:00,
2013-02-01 15:17:00,33.8,14.6,30.16,South,180,1.1,5.4,45,0.00,,,0.00,WUHU216HW,2013-02-01 21:17:00,
2013-02-01 15:22:00,33.7,14.4,30.16,SSE,158,1.8,4.7,45,0.00,,,0.00,WUHU216HW,2013-02-01 21:22:00,
2013-02-01 15:27:00,33.7,14.0,30.15,East,98,1.0,2.2,44,0.00,,,0.00,WUHU216HW,2013-02-01 21:27:00,
2013-02-01 15:32:00,33.7,14.4,30.15,SE,135,3.1,3.1,45,0.00,,,0.00,WUHU216HW,2013-02-01 21:32:00,
2013-02-01 15:37:00,33.7,14.0,30.15,SE,135,1.8,3.1,44,0.00,,,0.00,WUHU216HW,2013-02-01 21:37:00,
2013-02-01 15:42:00,33.7,13.4,30.15,SE,135,3.6,3.6,43,0.00,,,0.00,WUHU216HW,2013-02-01 21:42:00,
2013-02-01 15:47:00,33.5,14.2,30.15,SE,135,1.1,3.6,45,0.00,,,0.00,WUHU216HW,2013-02-01 21:47:00,
2013-02-01 15:52:00,33.5,13.8,30.15,SSE,158,2.2,3.8,44,0.00,,,0.00,WUHU216HW,2013-02-01 21:52:00,
2013-02-01 15:57:00,33.5,13.2,30.14,South,170,2.8,3.8,43,0.00,,,0.00,WUHU216HW,2013-02-01 21:57:00,
2013-02-01 16:02:00,33.5,12.8,30.14,SE,133,2.3,3.4,42,0.00,,,0.00,WUHU216HW,2013-02-01 22:02:00,
2013-02-01 16:07:00,33.3,13.1,30.14,SSE,158,1.3,2.5,43,0.00,,,0.00,WUHU216HW,2013-02-01 22:07:00,
2013-02-01 16:12:00,33.3,14.1,30.14,SE,135,0.9,1.8,45,0.00,,,0.00,WUHU216HW,2013-02-01 22:12:00,
2013-02-01 16:17:00,33.3,13.6,30.13,SSW,203,2.0,3.4,44,0.00,,,0.00,WUHU216HW,2013-02-01 22:17:00,
2013-02-01 16:22:00,33.3,13.6,30.13,SSE,158,1.6,3.4,44,0.00,,,0.00,WUHU216HW,2013-02-01 22:22:00,
2013-02-01 16:27:00,33.5,14.2,30.13,ESE,113,0.7,1.8,45,0.00,,,0.00,WUHU216HW,2013-02-01 22:27:00,
2013-02-01 16:32:00,33.5,13.2,30.13,East,90,2.2,2.5,43,0.00,,,0.00,WUHU216HW,2013-02-01 22:32:00,
2013-02-01 16:37:00,33.1,12.4,30.13,SE,135,1.8,2.5,42,0.00,,,0.00,WUHU216HW,2013-02-01 22:37:00,
2013-02-01 16:42:00,33.1,13.4,30.13,SE,135,2.2,2.2,44,0.00,,,0.00,WUHU216HW,2013-02-01 22:42:00,
2013-02-01 16:47:00,32.8,13.6,30.12,ESE,122,1.6,2.5,45,0.00,,,0.00,WUHU216HW,2013-02-01 22:47:00,
2013-02-01 16:52:00,32.8,13.6,30.12,SSE,158,1.3,2.5,45,0.00,,,0.00,WUHU216HW,2013-02-01 22:52:00,
2013-02-01 16:57:00,32.6,14.0,30.11,East,90,0.2,1.8,46,0.00,,,0.00,WUHU216HW,2013-02-01 22:57:00,
2013-02-01 17:02:00,32.4,13.3,30.11,ESE,113,1.1,1.8,45,0.00,,,0.00,WUHU216HW,2013-02-01 23:02:00,
2013-02-01 17:07:00,32.2,13.2,30.11,SSE,165,0.6,1.3,45,0.00,,,0.00,WUHU216HW,2013-02-01 23:07:00,
2013-02-01 17:12:00,32.2,13.6,30.11,ESE,113,0.7,1.1,46,0.00,,,0.00,WUHU216HW,2013-02-01 23:12:00,
2013-02-01 17:17:00,32.0,13.5,30.11,SE,129,1.3,1.8,46,0.00,,,0.00,WUHU216HW,2013-02-01 23:17:00,
2013-02-01 17:22:00,32.2,14.1,30.11,ESE,106,1.3,2.5,47,0.00,,,0.00,WUHU216HW,2013-02-01 23:22:00,
2013-02-01 17:27:00,32.2,13.6,30.10,ESE,113,1.5,2.5,46,0.00,,,0.00,WUHU216HW,2013-02-01 23:27:00,
2013-02-01 17:32:00,32.0,14.0,30.10,East,100,1.2,1.8,47,0.00,,,0.00,WUHU216HW,2013-02-01 23:32:00,
2013-02-01 17:37:00,31.9,14.3,30.10,East,90,2.5,2.5,48,0.00,,,0.00,WUHU216HW,2013-02-01 23:37:00,
2013-02-01 17:42:00,31.7,14.1,30.09,SE,135,3.1,3.1,48,0.00,,,0.00,WUHU216HW,2013-02-01 23:42:00,
2013-02-01 17:47:00,31.7,14.7,30.10,South,180,2.0,3.1,49,0.00,,,0.00,WUHU216HW,2013-02-01 23:47:00,
2013-02-01 17:52:00,31.7,14.7,30.10,ESE,113,1.8,4.0,49,0.00,,,0.00,WUHU216HW,2013-02-01 23:52:00,
2013-02-01 17:57:00,31.7,15.1,30.09,ESE,113,2.5,4.0,50,0.00,,,0.00,WUHU216HW,2013-02-01 23:57:00,
2013-02-01 18:02:00,31.5,15.0,30.09,ESE,113,3.6,3.6,50,0.00,,,0.00,WUHU216HW,2013-02-02 00:02:00,
2013-02-01 18:07:00,31.7,14.7,30.09,SE,135,3.4,4.7,49,0.00,,,0.00,WUHU216HW,2013-02-02 00:07:00,
2013-02-01 18:12:00,31.5,14.5,30.09,East,90,2.9,4.7,49,0.00,,,0.00,WUHU216HW,2013-02-02 00:12:00,
2013-02-01 18:17:00,31.3,14.9,30.09,SE,135,3.4,4.7,50,0.00,,,0.00,WUHU216HW,2013-02-02 00:17:00,
2013-02-01 18:22:00,31.3,14.9,30.08,ESE,113,1.8,3.8,50,0.00,,,0.00,WUHU216HW,2013-02-02 00:22:00,
2013-02-01 18:27:00,31.1,15.1,30.08,SE,135,1.6,2.5,51,0.00,,,0.00,WUHU216HW,2013-02-02 00:27:00,
2013-02-01 18:32:00,31.1,14.7,30.08,ESE,121,0.9,2.7,50,0.00,,,0.00,WUHU216HW,2013-02-02 00:32:00,
2013-02-01 18:37:00,31.0,14.5,30.08,SE,135,1.8,2.7,50,0.00,,,0.00,WUHU216HW,2013-02-02 00:37:00,
2013-02-01 18:42:00,31.0,15.0,30.08,SSE,158,2.2,2.5,51,0.00,,,0.00,WUHU216HW,2013-02-02 00:42:00,
2013-02-01 18:47:00,31.0,14.5,30.08,ESE,106,1.3,2.2,50,0.00,,,0.00,WUHU216HW,2013-02-02 00:47:00,
2013-02-01 18:52:00,30.8,14.3,30.07,ESE,109,1.2,2.5,50,0.00,,,0.00,WUHU216HW,2013-02-02 00:52:00,
2013-02-01 18:57:00,30.8,14.8,30.07,ESE,113,0.9,2.9,51,0.00,,,0.00,WUHU216HW,2013-02-02 00:57:00,
2013-02-01 19:02:00,30.8,14.3,30.07,SE,135,2.5,2.9,50,0.00,,,0.00,WUHU216HW,2013-02-02 01:02:00,
2013-02-01 19:07:00,30.8,14.8,30.07,East,90,2.5,2.5,51,0.00,,,0.00,WUHU216HW,2013-02-02 01:07:00,
2013-02-01 19:12:00,30.8,14.3,30.07,SE,130,0.8,2.5,50,0.00,,,0.00,WUHU216HW,2013-02-02 01:12:00,
2013-02-01 19:17:00,30.8,14.3,30.07,SE,135,1.1,2.0,50,0.00,,,0.00,WUHU216HW,2013-02-02 01:17:00,
2013-02-01 19:22:00,30.8,14.8,30.06,SE,135,1.3,2.0,51,0.00,,,0.00,WUHU216HW,2013-02-02 01:22:00,
2013-02-01 19:27:00,30.8,14.8,30.07,South,180,1.6,1.6,51,0.00,,,0.00,WUHU216HW,2013-02-02 01:27:00,
2013-02-01 19:32:00,30.8,14.3,30.06,ESE,113,2.0,2.0,50,0.00,,,0.00,WUHU216HW,2013-02-02 01:32:00,
2013-02-01 19:37:00,30.8,14.8,30.06,East,97,2.7,3.6,51,0.00,,,0.00,WUHU216HW,2013-02-02 01:37:00,
2013-02-01 19:42:00,31.0,14.5,30.06,ESE,121,0.9,3.6,50,0.00,,,0.00,WUHU216HW,2013-02-02 01:42:00,
2013-02-01 19:47:00,31.0,15.0,30.06,ESE,113,3.4,3.4,51,0.00,,,0.00,WUHU216HW,2013-02-02 01:47:00,
2013-02-01 19:52:00,31.0,15.0,30.06,SE,135,1.3,3.4,51,0.00,,,0.00,WUHU216HW,2013-02-02 01:52:00,
2013-02-01 19:57:00,31.0,15.0,30.06,ESE,113,0.9,2.2,51,0.00,,,0.00,WUHU216HW,2013-02-02 01:57:00,
2013-02-01 20:02:00,31.0,15.0,30.06,ESE,113,2.1,2.5,51,0.00,,,0.00,WUHU216HW,2013-02-02 02:02:00,
2013-02-01 20:07:00,31.0,15.4,30.05,ESE,122,0.8,2.5,52,0.00,,,0.00,WUHU216HW,2013-02-02 02:07:00,
2013-02-01 20:12:00,31.0,14.5,30.05,SSW,192,1.1,3.4,50,0.00,,,0.00,WUHU216HW,2013-02-02 02:12:00,
2013-02-01 20:17:00,31.0,15.0,30.05,ESE,113,2.0,3.4,51,0.00,,,0.00,WUHU216HW,2013-02-02 02:17:00,
2013-02-01 20:22:00,31.0,15.0,30.06,East,90,2.2,2.5,51,0.00,,,0.00,WUHU216HW,2013-02-02 02:22:00,
2013-02-01 20:27:00,31.0,14.5,30.06,SE,126,0.6,2.5,50,0.00,,,0.00,WUHU216HW,2013-02-02 02:27:00,
2013-02-01 20:32:00,31.0,15.0,30.06,SE,126,1.5,2.0,51,0.00,,,0.00,WUHU216HW,2013-02-02 02:32:00,
2013-02-01 20:37:00,31.0,15.0,30.06,SE,135,0.4,3.4,51,0.00,,,0.00,WUHU216HW,2013-02-02 02:37:00,
2013-02-01 20:42:00,30.8,14.8,30.06,East,90,0.9,3.4,51,0.00,,,0.00,WUHU216HW,2013-02-02 02:42:00,
2013-02-01 20:47:00,30.8,14.8,30.07,East,95,0.9,3.1,51,0.00,,,0.00,WUHU216HW,2013-02-02 02:47:00,
2013-02-01 20:52:00,30.6,14.6,30.07,South,180,1.4,3.1,51,0.00,,,0.00,WUHU216HW,2013-02-02 02:52:00,
2013-02-01 20:57:00,30.6,14.6,30.07,SSE,158,0.9,2.7,51,0.00,,,0.00,WUHU216HW,2013-02-02 02:57:00,
2013-02-01 21:02:00,30.6,15.0,30.08,SE,135,0.2,1.3,52,0.00,,,0.00,WUHU216HW,2013-02-02 03:02:00,
2013-02-01 21:07:00,30.4,14.9,30.08,SSE,158,1.3,3.6,52,0.00,,,0.00,WUHU216HW,2013-02-02 03:07:00,
2013-02-01 21:12:00,30.2,14.7,30.09,South,174,0.7,3.6,52,0.00,,,0.00,WUHU216HW,2013-02-02 03:12:00,
2013-02-01 21:17:00,30.1,14.5,30.09,SSE,158,0.4,1.1,52,0.00,,,0.00,WUHU216HW,2013-02-02 03:17:00,
2013-02-01 21:22:00,29.9,14.4,30.09,SE,135,0.0,0.4,52,0.00,,,0.00,WUHU216HW,2013-02-02 03:22:00,
2013-02-01 21:27:00,29.5,14.5,30.09,SE,135,0.0,0.0,53,0.00,,,0.00,WUHU216HW,2013-02-02 03:27:00,
2013-02-01 21:32:00,29.2,14.1,30.09,SE,135,0.0,0.0,53,0.00,,,0.00,WUHU216HW,2013-02-02 03:32:00,
2013-02-01 21:37:00,28.8,14.2,30.09,SE,135,0.0,0.0,54,0.00,,,0.00,WUHU216HW,2013-02-02 03:37:00,
2013-02-01 21:42:00,28.4,14.8,30.10,SE,135,0.0,0.0,56,0.00,,,0.00,WUHU216HW,2013-02-02 03:42:00,
2013-02-01 21:47:00,28.3,14.6,30.10,SE,135,0.0,0.0,56,0.00,,,0.00,WUHU216HW,2013-02-02 03:47:00,
2013-02-01 21:52:00,28.1,14.4,30.10,SE,135,0.0,0.0,56,0.00,,,0.00,WUHU216HW,2013-02-02 03:52:00,
2013-02-01 21:57:00,27.7,14.1,30.10,SE,135,0.0,0.0,56,0.00,,,0.00,WUHU216HW,2013-02-02 03:57:00,
2013-02-01 22:02:00,27.5,14.2,30.10,SE,135,0.0,0.0,57,0.00,,,0.00,WUHU216HW,2013-02-02 04:02:00,
2013-02-01 22:07:00,27.4,15.3,30.11,SE,135,0.0,0.0,60,0.00,,,0.00,WUHU216HW,2013-02-02 04:07:00,
2013-02-01 22:12:00,27.4,14.9,30.10,SE,135,0.0,0.0,59,0.00,,,0.00,WUHU216HW,2013-02-02 04:12:00,
2013-02-01 22:17:00,27.4,15.3,30.10,SE,135,0.0,0.2,60,0.00,,,0.00,WUHU216HW,2013-02-02 04:17:00,
2013-02-01 22:22:00,27.5,15.0,30.10,SE,135,0.0,0.2,59,0.00,,,0.00,WUHU216HW,2013-02-02 04:22:00,
2013-02-01 22:27:00,27.4,14.9,30.10,SE,135,0.0,0.0,59,0.00,,,0.00,WUHU216HW,2013-02-02 04:27:00,
2013-02-01 22:32:00,27.4,15.7,30.10,SE,135,0.0,0.0,61,0.00,,,0.00,WUHU216HW,2013-02-02 04:32:00,
2013-02-01 22:37:00,27.5,15.5,30.10,SSE,158,0.0,0.4,60,0.00,,,0.00,WUHU216HW,2013-02-02 04:37:00,
2013-02-01 22:42:00,27.5,15.5,30.10,SSE,158,0.0,0.4,60,0.00,,,0.00,WUHU216HW,2013-02-02 04:42:00,
2013-02-01 22:47:00,27.4,15.7,30.10,ESE,113,0.1,0.2,61,0.00,,,0.00,WUHU216HW,2013-02-02 04:47:00,
2013-02-01 22:52:00,27.4,15.7,30.10,ESE,113,0.2,0.4,61,0.00,,,0.00,WUHU216HW,2013-02-02 04:52:00,
2013-02-01 22:57:00,27.5,15.8,30.10,SE,135,0.0,0.4,61,0.00,,,0.00,WUHU216HW,2013-02-02 04:57:00,
2013-02-01 23:00:00,27.5,15.8,30.10,SE,135,0.1,0.4,61,0.00,,,0.00,WUHU216HW,2013-02-02 05:00:00,
2013-02-01 23:01:00,27.5,15.8,30.09,SE,135,0.2,0.4,61,0.00,,,0.00,WUHU216HW,2013-02-02 05:01:00,
2013-02-01 23:06:00,27.7,16.0,30.09,SE,135,0.3,0.4,61,0.00,,,0.00,WUHU216HW,2013-02-02 05:06:00,
2013-02-01 23:10:00,27.7,16.0,30.09,ESE,113,0.1,0.4,61,0.00,,,0.00,WUHU216HW,2013-02-02 05:10:00,
2013-02-01 23:15:00,27.5,15.8,30.09,SE,135,0.2,0.4,61,0.00,,,0.00,WUHU216HW,2013-02-02 05:15:00,
2013-02-01 23:20:00,27.7,16.4,30.09,SSE,158,0.4,1.1,62,0.00,,,0.00,WUHU216HW,2013-02-02 05:20:00,
2013-02-01 23:25:00,27.9,16.6,30.09,SE,135,0.3,1.1,62,0.00,,,0.00,WUHU216HW,2013-02-02 05:25:00,
2013-02-01 23:30:00,28.3,16.9,30.08,ESE,113,0.7,1.1,62,0.00,,,0.00,WUHU216HW,2013-02-02 05:30:00,
2013-02-01 23:35:00,28.3,16.9,30.08,SE,135,0.2,1.1,62,0.00,,,0.00,WUHU216HW,2013-02-02 05:35:00,
2013-02-01 23:40:00,28.3,16.9,30.08,SE,135,0.4,0.7,62,0.00,,,0.00,WUHU216HW,2013-02-02 05:40:00,
2013-02-01 23:45:00,28.3,16.6,30.08,ESE,113,0.7,1.1,61,0.00,,,0.00,WUHU216HW,2013-02-02 05:45:00,
2013-02-01 23:50:00,28.3,16.6,30.08,SE,135,0.7,1.1,61,0.00,,,0.00,WUHU216HW,2013-02-02 05:50:00,
2013-02-01 23:55:00,28.3,16.6,30.07,SSE,153,0.4,0.9,61,0.00,,,0.00,WUHU216HW,2013-02-02 05:55:00,